Regional Weather Roundup
Issued by NWS Kansas City/Pleasant Hill, MO

Home | Current Version | Previous Version | Graphics & Text | Print | Product List | Glossary Off
Versions: 1 2 3 4 5 6 7 8 9 10 11 12 13 14 15 16 17 18 19 20 21 22 23 24 25 26 27 28 29 30 31 32 33 34 35 36 37 38 39 40 41 42 43 44 45 46 47 48 49 50

545
ASUS43 KEAX 240810
RWREAX

WEATHER ROUNDUP FOR EASTERN KANSAS AND NORTHWEST MISSOURI
NATIONAL WEATHER SERVICE KANSAS CITY/PLEASANT HILL MO
300 AM CDT FRI MAR 24 2017

KSZ040-057-103>105-MOZ028-029-037-043-240900-
...KANSAS CITY METROPOLITAN AREA...

CITY           SKY/WX    TMP DP  RH WIND       PRES   REMARKS
K.C. INTL      CLOUDY    67  49  52 S12       29.82R
K.C. DOWNTOWN  CLOUDY    69  49  48 S10       29.82R
LEES SUMMIT    MOCLDY    68  49  50 SW15      29.85R
OLATHE - IXD   CLOUDY    67  50  54 S14G22    29.84R
OLATHE - OJC   MOCLDY    65  50  58 S9        29.85R
LAWRENCE       CLOUDY    69  51  52 S10       29.81R

$$

MOZ001>008-011>017-020>025-030>033-038>040-044>046-053-054-240900-
...NORTHERN AND CENTRAL MISSOURI...

CITY           SKY/WX    TMP DP  RH WIND       PRES   REMARKS
ST. JOSEPH     CLOUDY    65  50  58 S8        29.79S
MOSBY          CLOUDY    68  46  45 S7        29.84R
WARRENSBURG    MOCLDY    68  45  42 S14G21    29.82R
WHITEMAN AFB   PTCLDY    68  48  49 S16G24    29.81R
CLINTON        CLEAR     68  46  45 S14G23    29.83S
SEDALIA        CLOUDY    68  49  50 S20       29.83F
WARSAW         NOT AVBL
CHILLICOTHE      N/A     59  47  64 CALM      29.84R
KIRKSVILLE     PTCLDY    63  32  31 S10       29.86R

$$

MOZ041-047>049-056>058-063>065-088>090-097-240900-
...EASTERN AND SOUTHERN MISSOURI...

CITY           SKY/WX    TMP DP  RH WIND       PRES   REMARKS
ST. LOUIS INTL CLOUDY    54  44  69 VRB6      29.94F
SPIRIT OF STL  PTCLDY    64  51  62 VRB6      29.91F
COLUMBIA       PTCLDY    62  52  69 S10       29.87F
JEFFERSON CITY PTCLDY    70  51  51 S8        29.88F
ROLLA          PTCLDY    67  50  54 S18G26    29.90F
OSAGE BEACH    CLEAR    N/A N/A N/A S12       29.89F
SPRINGFIELD    CLEAR     65  47  52 S16G24    29.87F
BRANSON        CLEAR     68  45  42 S10G18    29.94S
JOPLIN         CLEAR     70  47  43 S21G38    29.83S
WEST PLAINS    CLEAR     64  50  60 S12       29.98F

$$

IAZ060-094-KSZ022-034>040-054-083-096-NEZ052-066-093-240900-
...KANSAS...SOUTHEAST NEBRASKA AND IOWA...

CITY           SKY/WX    TMP DP  RH WIND       PRES   REMARKS
TOPEKA         CLOUDY    68  52  56 S8        29.78F
MANHATTAN      CLOUDY    71  49  45 S14G25    29.72F
EMPORIA        PTCLDY    63  50  62 S8        29.78F
CHANUTE        MOCLDY    69  49  48 S17       29.83R
WICHITA        CLOUDY    69  44  40 S22G29    29.73F
OMAHA          CLOUDY    65  52  62 N3        29.73R
LINCOLN        CLOUDY    66  51  58 W5        29.72R
FALLS CITY     CLOUDY    66  49  54 S15       29.74S
LAMONI         PTCLDY    62  45  53 S13       29.79R
DES MOINES     CLOUDY    57  44  62 SE8       29.75F

$$





USA.gov is the U.S. government's official web portal to all federal, state and local government web resources and services.